SCP
4 4 4 3 3 3 3 3 2 2 2 1 1 1 1 1 1 1 1 1 1 1 1 1 1 1 1 1 1 1 1 1 1 1 0 0 0 0 0 0 0 0 0
4 4 4 4 4 3 4 3 3 2 2 2 1 1 1 1 1 1 1 1 1 1 1 1 1 1 1 1 1 1 1 1 1 1 1 1 0 0 0 0 0 0 0
3 4 4 4 4 4 4 4 3 2 2 2 2 2 2 2 2 1 1 1 1 1 1 1 1 1 1 1 1 1 1 1 1 1 1 1 1 0 0 0 0 0 0
3 3 4 4 4 4 4 3 3 3 2 2 2 2 2 2 2 2 2 2 2 2 2 1 1 1 1 1 1 1 1 1 1 1 1 1 1 1 1 1 1 1 0
3 3 4 4 4 4 3 3 3 3 3 2 2 2 2 2 2 2 2 2 2 2 2 2 1 2 2 2 1 1 1 1 1 1 1 1 1 1 1 1 1 1 1
3 3 4 4 3 3 3 3 3 3 3 2 2 2 1 2 2 2 2 3 2 2 2 2 2 2 2 2 2 1 1 1 1 1 1 1 1 1 1 1 1 1 1
3 3 4 4 4 4 4 3 3 3 3 3 2 2 1 2 2 2 2 3 3 2 2 2 3 3 3 3 2 1 1 1 1 1 1 1 1 1 1 1 1 1 0
3 3 4 4 4 4 4 4 4 3 3 3 3 2 2 2 2 2 3 3 3 3 3 3 2 2 3 2 2 1 1 1 1 1 1 1 1 1 0 0 0 0 0
3 3 3 4 4 4 5 4 4 3 3 3 3 2 2 2 2 2 3 3 3 3 3 2 2 2 2 2 1 1 1 1 1 1 1 1 1 0 0 0 0 0 0
3 3 3 4 4 4 4 4 4 3 3 3 3 2 2 2 2 2 2 2 2 3 3 2 2 1 1 1 1 1 1 1 1 1 1 1 1 0 0 0 0 0 0
2 2 3 3 3 4 4 3 3 3 3 2 3 3 2 2 2 1 1 1 2 2 2 2 2 2 1 1 1 0 0 0 0 0 0 0 0 0 1 1 0 0 0
2 2 2 2 2 2 2 2 2 2 2 2 3 3 3 3 2 1 1 1 1 1 1 1 1 1 1 1 1 0 0 0 0 0 0 0 0 0 0 0 0 0 0
1 1 1 1 1 1 2 1 1 1 1 1 2 2 3 3 2 2 1 1 1 1 0 0 0 1 1 0 0 0 0 0 0 0 0 0 0 0 0 0 0 0 0
1 0 0 0 1 1 1 1 1 1 1 1 1 2 2 2 2 1 1 1 1 1 0 0 0 0 0 0 0 0 0 0 0 0 0 0 0 0 0 0 0 0 0
0 0 0 0 0 1 1 1 0 1 1 1 1 1 1 1 1 1 1 1 1 1 1 0 0 0 0 0 0 0 0 0 0 0 0 0 0 0 0 0 0 0 0
0 0 0 0 0 0 0 0 0 0 1 1 1 1 1 1 1 1 1 1 1 1 1 1 0 0 0 0 0 0 0 0 0 0 0 0 0 0 0 0 0 0 0
0 0 0 0 0 0 0 0 0 0 0 0 1 0 0 0 1 1 1 1 1 1 1 1 0 0 0 0 0 0 0 0 0 0 0 0 0 0 0 0 0 0 0
0 0 0 0 0 0 0 0 0 0 0 0 0 0 0 0 0 0 0 0 1 1 1 1 0 0 0 0 0 0 0 0 0 0 0 0 0 0 0 0 0 0 0
0 0 0 0 0 0 0 0 0 0 0 0 0 0 0 0 0 0 0 0 0 0 0 0 0 0 0 0 0 0 0 0 0 0 0 0 0 0 0 0 0 0 0
0 0 0 0 0 0 0 0 0 0 0 0 0 0 0 0 0 0 0 0 0 0 0 0 0 0 0 0 0 0 0 0 0 0 0 0 0 0 0 0 0 0 0
0 0 0 0 0 0 0 0 0 0 0 0 0 0 0 0 0 0 0 0 0 0 0 0 0 0 0 0 0 0 0 0 0 0 0 0 0 0 0 0 0 0 0
0 0 0 0 0 0 0 0 0 0 0 0 0 0 0 0 0 0 0 0 0 0 0 0 0 0 0 0 0 0 0 0 0 0 0 0 0 0 0 0 0 0 0
0 0 0 0 0 0 0 0 0 0 0 0 0 0 0 0 0 0 0 0 0 0 0 0 0 0 0 0 0 0 0 0 0 0 0 0 0 0 0 0 0 0 0
0 0 0 0 0 0 0 0 0 0 0 0 0 0 0 0 0 0 0 0 0 0 0 0 0 0 0 0 0 0 0 0 0 0 0 0 0 0 0 0 0 0 0
0 0 0 0 0 0 0 0 0 0 0 0 0 0 0 0 0 0 0 0 0 0 0 0 0 0 0 0 0 0 0 0 0 0 0 0 0 0 0 0 0 0 0
0 0 0 0 0 0 0 0 0 0 0 0 0 0 0 0 0 0 0 0 0 0 0 0 0 0 0 0 0 0 0 0 0 0 0 0 0 0 0 0 0 0 0
Wind_Speed
5 4 4 4 6 5 6 6 6 6 6 7 7 8 7 7 7 6 5 11 10 10 11 12 12 11 10 9 9 8 8 8 7 7 6 6 5 5 5 5 5 5 5
3 4 5 5 5 5 5 5 6 5 5 5 6 7 7 7 7 7 5 8 10 10 10 11 12 11 11 10 9 9 8 8 8 7 7 7 6 6 6 6 6 6 6
3 4 4 4 4 5 5 5 5 5 5 5 6 6 6 6 6 6 6 5 7 10 10 10 10 11 11 11 11 10 9 9 8 8 8 8 8 8 8 7 7 6 6
4 4 4 4 4 4 4 4 5 5 5 4 4 4 4 4 6 5 5 4 4 5 8 10 10 10 11 11 11 11 10 9 9 9 9 9 9 9 9 8 8 7 7
4 4 4 3 4 4 4 5 4 5 5 5 4 4 4 4 4 5 4 4 4 4 4 8 11 11 11 11 11 11 10 10 10 10 10 9 9 9 9 9 8 8 8
2 3 4 4 4 4 4 4 4 4 4 4 4 3 2 2 3 3 4 3 3 5 5 6 7 8 11 11 11 11 11 10 10 10 10 10 10 10 10 9 9 9 8
2 3 4 3 4 4 4 5 4 5 5 4 4 3 2 2 2 1 2 3 4 4 5 5 4 5 6 10 10 11 11 10 10 10 10 10 10 10 9 9 8 8 8
2 2 3 3 3 3 4 5 5 4 4 5 4 3 3 3 2 1 1 2 3 3 5 5 6 5 5 5 7 10 10 10 10 11 10 10 10 9 9 8 8 8 8
2 2 2 3 3 3 3 4 5 6 5 5 4 4 4 4 3 2 1 2 3 3 4 4 6 5 6 5 7 9 10 9 10 11 10 9 9 9 8 8 8 8 7
2 2 2 2 2 2 3 4 4 4 5 5 4 3 2 2 4 3 2 2 3 4 4 4 5 6 6 5 7 10 11 10 10 10 10 9 9 9 8 8 7 7 7
3 3 2 2 1 1 2 2 2 3 3 4 3 3 2 2 3 4 4 4 3 3 3 4 4 4 5 5 5 10 11 10 9 9 9 8 8 8 7 7 7 7 7
4 5 4 3 2 1 0 1 1 1 1 3 3 3 3 3 4 3 4 5 5 3 4 3 4 4 4 5 8 12 10 10 9 8 8 8 8 8 8 8 8 7 7
4 6 5 4 3 3 3 2 1 2 1 1 1 1 2 2 2 2 4 5 5 4 3 3 3 3 4 4 6 10 10 9 9 8 8 8 8 8 8 7 7 7 6
5 6 5 5 4 4 4 3 2 2 1 0 0 0 1 1 2 2 4 6 6 4 3 4 3 3 3 3 5 6 8 9 9 8 7 7 7 7 7 6 6 6 5
5 6 6 6 5 5 5 4 3 3 3 2 2 2 2 2 2 2 3 4 5 6 5 4 3 3 3 3 5 4 6 9 8 7 6 6 6 5 5 5 5 5 4
7 7 7 7 7 6 6 5 5 5 5 4 4 5 4 3 3 3 3 2 2 4 5 4 3 4 4 5 5 4 5 9 7 6 6 6 6 6 6 5 5 5 4
7 7 7 7 8 7 7 7 7 7 7 7 6 6 6 5 4 4 4 4 4 5 7 5 4 6 5 5 5 4 5 5 6 7 6 6 6 6 6 6 6 5 4
7 8 7 8 8 8 8 9 9 9 9 9 8 8 7 6 6 5 4 4 4 4 8 9 7 6 6 6 6 5 4 3 4 8 6 6 6 6 6 6 6 5 5
8 8 8 9 9 9 9 9 9 9 10 10 9 9 8 7 7 6 5 5 5 6 6 8 8 6 6 5 6 4 4 2 3 7 8 8 7 7 6 6 6 6 6
8 8 9 9 9 9 9 9 9 10 10 10 10 10 9 8 8 6 5 6 6 7 8 7 7 6 5 5 4 4 4 3 2 3 4 4 7 9 8 8 8 7 6
8 8 9 9 9 9 9 9 8 9 10 10 10 11 11 12 12 8 6 6 6 6 6 6 6 6 5 4 3 2 2 3 3 2 2 4 5 6 8 10 10 8 7
8 9 9 10 10 9 10 11 8 9 10 10 10 10 10 11 12 13 13 12 8 5 5 5 5 5 5 4 2 1 2 2 2 2 2 2 2 3 3 3 7 7 6
9 9 9 10 10 10 10 10 9 8 10 9 9 8 8 9 8 10 10 11 12 11 7 3 5 5 5 4 2 2 1 1 2 1 2 2 2 2 2 4 8 6 6
7 8 8 9 9 9 9 8 6 9 10 10 9 9 9 9 9 7 8 9 9 8 6 5 5 4 4 3 1 0 1 2 3 2 2 2 1 2 2 3 10 7 7
7 7 8 9 9 8 9 8 6 7 8 10 9 10 9 9 9 7 6 7 8 6 7 7 6 5 5 3 3 2 1 2 1 2 1 2 1 2 2 2 7 11 9
6 7 8 8 9 8 9 10 8 5 7 7 7 8 11 9 9 9 5 6 7 6 5 6 5 4 4 3 2 3 3 2 2 0 1 2 2 2 2 1 2 5 7
Wind_Direction
225 217 217 211 216 204 198 214 218 208 218 222 227 231 238 236 247 241 172 164 181 191 194 191 186 181 178 176 172 166 159 155 149 143 138 135 133 130 124 117 112 107 101
233 229 225 218 223 218 212 213 218 212 217 228 235 237 244 242 238 243 231 170 178 187 192 189 183 178 172 169 164 157 152 150 145 140 137 133 127 121 116 111 106 101 95
247 246 238 227 225 220 212 217 214 215 215 218 233 238 238 242 238 231 234 217 187 180 180 177 174 172 169 164 159 152 147 142 138 135 131 126 121 116 112 108 105 101 97
252 246 244 235 227 228 219 216 215 214 214 216 222 227 230 229 232 225 223 218 209 182 166 161 160 161 160 157 154 150 146 141 134 128 124 120 115 111 108 105 103 100 97
265 256 253 245 235 231 225 228 213 221 216 210 214 218 223 223 223 223 209 207 191 175 163 145 148 148 150 150 148 146 142 136 131 128 124 120 116 113 110 107 104 100 97
271 250 242 234 237 232 225 226 224 223 222 208 210 214 217 223 221 215 204 187 177 168 163 155 148 141 140 143 144 142 138 136 133 130 127 122 118 114 110 107 104 101 97
265 256 249 227 230 229 229 224 215 218 218 198 191 190 196 219 233 232 202 186 169 159 156 153 146 136 132 128 135 139 139 137 133 129 124 121 118 115 113 109 105 101 98
284 261 270 250 236 234 227 225 213 221 218 199 197 189 191 190 196 233 188 162 150 148 141 137 132 131 134 128 119 128 132 132 131 128 125 123 120 118 117 114 110 104 100
332 321 297 273 250 238 234 233 225 219 217 208 202 196 196 194 158 160 179 149 142 136 129 126 125 123 121 119 126 118 123 126 130 127 124 123 123 122 118 117 114 109 103
359 334 308 283 258 247 251 247 230 234 224 213 202 217 228 170 171 156 139 127 126 125 125 126 117 112 111 106 105 111 111 112 120 121 121 121 125 125 123 121 117 113 106
26 17 2 337 287 251 245 246 243 238 233 222 200 194 201 201 190 160 154 142 108 85 95 107 108 105 107 113 115 112 110 108 114 119 120 121 118 121 123 121 115 109 101
33 31 24 19 24 19 338 238 234 226 234 222 207 192 190 197 194 172 159 153 131 100 83 85 101 103 104 107 110 112 112 112 112 112 115 117 116 117 116 112 109 105 99
35 25 25 24 31 31 22 12 57 46 21 263 229 210 205 209 187 166 149 141 129 117 97 78 78 91 99 96 114 126 123 120 117 116 118 122 123 124 122 119 116 108 100
36 29 30 32 34 39 41 33 46 51 44 25 35 190 183 147 144 148 147 143 137 131 122 118 95 97 108 119 121 139 129 129 125 122 128 132 132 134 133 130 125 118 111
39 37 38 43 44 44 41 41 48 46 44 51 67 75 73 78 101 120 136 154 151 149 142 139 138 148 144 136 137 150 138 131 137 141 140 141 144 147 149 152 149 145 138
40 39 40 45 48 51 50 51 60 55 58 56 56 64 65 68 75 97 115 112 120 137 129 130 129 145 151 144 145 149 135 142 153 157 154 157 165 169 173 175 174 173 170
45 46 45 48 50 53 55 60 64 65 68 65 63 68 66 66 76 85 96 104 111 122 125 122 128 139 148 143 139 150 156 170 151 156 162 168 175 181 187 189 189 188 190
52 53 53 56 58 57 57 60 63 63 65 65 63 67 67 70 74 78 92 104 110 120 133 132 136 143 145 144 146 166 159 163 148 142 162 174 182 187 193 195 195 197 200
56 57 58 60 61 61 61 62 65 65 63 61 58 61 65 72 75 76 87 101 111 118 124 131 133 135 144 151 161 165 153 163 174 153 171 181 187 192 197 198 200 204 207
61 60 60 62 62 63 63 65 69 68 66 62 58 58 58 62 68 79 89 100 112 121 127 130 133 140 143 150 168 162 160 170 177 172 174 179 179 193 199 201 204 206 211
66 66 67 65 61 59 52 54 68 73 73 70 66 63 63 61 54 52 69 88 109 121 129 132 137 141 139 152 159 161 156 175 168 193 211 196 186 198 189 199 202 202 212
67 66 66 68 64 57 38 35 44 68 69 71 72 73 77 72 71 66 62 60 61 92 114 128 130 125 125 127 114 164 173 193 163 145 249 221 213 212 204 182 149 176 206
72 70 68 69 69 57 41 40 38 63 68 66 65 64 68 69 72 83 86 86 71 59 57 73 102 105 120 118 141 160 107 345 24 62 269 229 206 233 224 128 147 183 208
70 71 73 74 74 60 39 39 38 71 71 69 67 66 67 62 48 50 82 84 82 70 56 70 82 83 85 86 83 53 157 201 202 190 256 266 214 238 251 160 161 191 210
76 75 73 76 78 66 33 20 10 85 81 74 67 58 58 66 32 12 78 90 91 95 89 73 65 70 60 36 340 274 235 251 203 150 203 287 288 276 256 217 169 189 207
85 84 77 73 73 66 37 19 359 77 84 88 87 80 61 46 26 11 63 83 88 87 97 116 122 153 160 154 214 282 313 316 322 47 101 294 312 307 287 249 229 192 207